カタログに戻る

OPS 4682 DEB

運用中PO
NORAD 38437·DEBRIS·🇺🇸 United States

打ち上げ Apr 3, 1965 から Vandenberg Space Force Base

Loading…

次のパス (今後24時間)

TLE

最新Source: Space-Track

元期: Sep 14, 2026, 06:22 UTC

1 38437U 65027ES  26257.26550448  .00000060  00000-0  18626-3 0  9993
2 38437  90.2426   7.5825 0036475 290.4278  69.2927 12.95961037562083

AllMySatでOPS 4682 DEBをリアルタイム追跡

Download on the App Store